Time,TemperatureF,DewpointF,PressureIn,WindDirection,WindDirectionDegrees,WindSpeedMPH,WindSpeedGustMPH,Humidity,HourlyPrecipIn,Conditions,Clouds,dailyrainin,SoftwareType,DateUTC
2013-11-19 00:00:00,63.6,46.6,29.87,NW,315,8.0,20.0,54,0.00,,,0.00,WUHU216DAVISVP2,2013-11-19 05:00:00,
2013-11-19 00:30:00,62.4,45.5,29.88,NW,315,8.0,16.0,54,0.00,,,0.00,WUHU216DAVISVP2,2013-11-19 05:30:00,
2013-11-19 01:00:00,60.7,44.4,29.88,NW,315,6.0,16.0,55,0.00,,,0.00,WUHU216DAVISVP2,2013-11-19 06:00:00,
2013-11-19 01:30:00,59.7,41.5,29.88,North,0,7.0,20.0,51,0.00,,,0.00,WUHU216DAVISVP2,2013-11-19 06:30:00,
2013-11-19 02:00:00,58.6,38.4,29.89,NNW,338,9.0,23.0,47,0.00,,,0.00,WUHU216DAVISVP2,2013-11-19 07:00:00,
2013-11-19 02:30:00,57.2,37.7,29.91,NW,315,7.0,17.0,48,0.00,,,0.00,WUHU216DAVISVP2,2013-11-19 07:30:00,
2013-11-19 03:00:00,56.2,37.3,29.91,NW,315,7.0,16.0,49,0.00,,,0.00,WUHU216DAVISVP2,2013-11-19 08:00:00,
2013-11-19 03:30:00,55.5,36.1,29.92,NNW,338,8.0,18.0,48,0.00,,,0.00,WUHU216DAVISVP2,2013-11-19 08:30:00,
2013-11-19 04:00:00,54.5,35.2,29.93,NNW,338,7.0,17.0,48,0.00,,,0.00,WUHU216DAVISVP2,2013-11-19 09:00:00,
2013-11-19 04:30:00,54.1,33.8,29.94,NNW,338,9.0,18.0,46,0.00,,,0.00,WUHU216DAVISVP2,2013-11-19 09:30:00,
2013-11-19 05:00:00,53.3,33.0,29.96,NNW,338,8.0,20.0,46,0.00,,,0.00,WUHU216DAVISVP2,2013-11-19 10:00:00,
2013-11-19 05:30:00,52.5,32.8,29.97,NW,315,7.0,16.0,47,0.00,,,0.00,WUHU216DAVISVP2,2013-11-19 10:30:00,
2013-11-19 06:00:00,52.1,31.9,29.98,NNW,338,8.0,18.0,46,0.00,,,0.00,WUHU216DAVISVP2,2013-11-19 11:00:00,
2013-11-19 06:30:00,51.4,31.8,30.00,North,0,9.0,18.0,47,0.00,,,0.00,WUHU216DAVISVP2,2013-11-19 11:30:00,
2013-11-19 07:00:00,50.6,31.6,30.01,NNW,338,8.0,15.0,48,0.00,,,0.00,WUHU216DAVISVP2,2013-11-19 12:00:00,
2013-11-19 07:30:00,50.3,32.4,30.02,NW,315,7.0,15.0,50,0.00,,,0.00,WUHU216DAVISVP2,2013-11-19 12:30:00,
2013-11-19 08:00:00,51.2,32.2,30.04,North,0,8.0,18.0,48,0.00,,,0.00,WUHU216DAVISVP2,2013-11-19 13:00:00,
2013-11-19 08:30:00,52.6,31.3,30.05,NNE,23,11.0,23.0,44,0.00,,,0.00,WUHU216DAVISVP2,2013-11-19 13:30:00,
2013-11-19 08:37:00,52.8,31.4,30.05,NE,37,14.0,23.0,44,0.00,,,0.00,WUHU216DAVISVP2,2013-11-19 13:37:00,
2013-11-19 08:42:00,53.0,31.0,30.06,North,349,16.0,28.0,43,0.00,,,0.00,WUHU216DAVISVP2,2013-11-19 13:42:00,
2013-11-19 08:47:00,53.2,32.3,30.06,NNE,17,19.0,28.0,45,0.00,,,0.00,WUHU216DAVISVP2,2013-11-19 13:47:00,
2013-11-19 08:52:00,53.5,32.0,30.06,NNE,23,16.0,28.0,44,0.00,,,0.00,WUHU216DAVISVP2,2013-11-19 13:52:00,
2013-11-19 08:57:00,53.6,32.8,30.07,NE,39,10.0,30.0,45,0.00,,,0.00,WUHU216DAVISVP2,2013-11-19 13:57:00,
2013-11-19 09:00:00,53.8,32.4,30.07,NNE,23,15.0,30.0,44,0.00,,,0.00,WUHU216DAVISVP2,2013-11-19 14:00:00,
2013-11-19 09:02:00,53.8,32.9,30.07,NE,37,15.0,30.0,45,0.00,,,0.00,WUHU216DAVISVP2,2013-11-19 14:02:00,
2013-11-19 09:07:00,53.9,31.8,30.07,NNE,25,14.0,30.0,43,0.00,,,0.00,WUHU216DAVISVP2,2013-11-19 14:07:00,
2013-11-19 09:12:00,53.9,33.5,30.07,NNE,22,18.0,30.0,46,0.00,,,0.00,WUHU216DAVISVP2,2013-11-19 14:12:00,
2013-11-19 09:17:00,54.2,36.5,30.07,NNE,23,21.0,31.0,51,0.00,,,0.00,WUHU216DAVISVP2,2013-11-19 14:17:00,
2013-11-19 09:22:00,54.0,35.8,30.07,NE,42,14.0,31.0,50,0.00,,,0.00,WUHU216DAVISVP2,2013-11-19 14:22:00,
2013-11-19 09:27:00,54.1,35.9,30.07,NE,36,22.0,31.0,50,0.00,,,0.00,WUHU216DAVISVP2,2013-11-19 14:27:00,
2013-11-19 09:28:00,54.0,35.8,30.07,NNE,30,22.0,31.0,50,0.00,,,0.00,WUHU216DAVISVP2,2013-11-19 14:28:00,
2013-11-19 09:30:00,54.0,35.8,30.07,NNE,23,18.0,31.0,50,0.00,,,0.00,WUHU216DAVISVP2,2013-11-19 14:30:00,
2013-11-19 09:33:00,53.9,35.7,30.07,NE,42,16.0,31.0,50,0.00,,,0.00,WUHU216DAVISVP2,2013-11-19 14:33:00,
2013-11-19 09:38:00,53.8,34.5,30.08,NNE,23,19.0,31.0,48,0.00,,,0.00,WUHU216DAVISVP2,2013-11-19 14:38:00,
2013-11-19 09:43:00,53.9,35.7,30.08,North,8,21.0,28.0,50,0.00,,,0.00,WUHU216DAVISVP2,2013-11-19 14:43:00,
2013-11-19 09:48:00,53.8,36.1,30.08,NE,49,16.0,30.0,51,0.00,,,0.00,WUHU216DAVISVP2,2013-11-19 14:48:00,
2013-11-19 09:53:00,54.0,35.3,30.08,NE,41,19.0,31.0,49,0.00,,,0.00,WUHU216DAVISVP2,2013-11-19 14:53:00,
2013-11-19 09:58:00,54.1,36.9,30.08,NNE,23,15.0,31.0,52,0.00,,,0.00,WUHU216DAVISVP2,2013-11-19 14:58:00,
2013-11-19 10:00:00,54.1,35.3,30.08,NNE,23,18.0,31.0,49,0.00,,,0.00,WUHU216DAVISVP2,2013-11-19 15:00:00,
2013-11-19 10:03:00,54.1,35.3,30.08,NE,40,15.0,31.0,49,0.00,,,0.00,WUHU216DAVISVP2,2013-11-19 15:03:00,
2013-11-19 10:08:00,54.5,36.7,30.08,NE,37,20.0,29.0,51,0.00,,,0.00,WUHU216DAVISVP2,2013-11-19 15:08:00,
2013-11-19 10:13:00,54.5,36.7,30.08,NNE,27,14.0,29.0,51,0.00,,,0.00,WUHU216DAVISVP2,2013-11-19 15:13:00,
2013-11-19 10:18:00,54.6,35.8,30.08,NE,34,23.0,29.0,49,0.00,,,0.00,WUHU216DAVISVP2,2013-11-19 15:18:00,
2013-11-19 10:23:00,54.7,35.3,30.08,NNE,32,17.0,30.0,48,0.00,,,0.00,WUHU216DAVISVP2,2013-11-19 15:23:00,
2013-11-19 10:28:00,54.7,35.9,30.08,NE,49,27.0,32.0,49,0.00,,,0.00,WUHU216DAVISVP2,2013-11-19 15:28:00,
2013-11-19 10:30:00,54.7,34.8,30.08,NE,45,19.0,32.0,47,0.00,,,0.00,WUHU216DAVISVP2,2013-11-19 15:30:00,
2013-11-19 10:33:00,54.7,34.8,30.08,NE,46,19.0,32.0,47,0.00,,,0.00,WUHU216DAVISVP2,2013-11-19 15:33:00,
2013-11-19 10:38:00,55.0,36.2,30.08,NNE,33,13.0,32.0,49,0.00,,,0.00,WUHU216DAVISVP2,2013-11-19 15:38:00,
2013-11-19 10:43:00,55.4,38.1,30.08,NNE,24,17.0,32.0,52,0.00,,,0.00,WUHU216DAVISVP2,2013-11-19 15:43:00,
2013-11-19 10:48:00,55.5,37.1,30.09,NE,36,20.0,27.0,50,0.00,,,0.00,WUHU216DAVISVP2,2013-11-19 15:48:00,
2013-11-19 10:53:00,55.1,36.2,30.08,NNE,32,24.0,28.0,49,0.00,,,0.00,WUHU216DAVISVP2,2013-11-19 15:53:00,
2013-11-19 10:58:00,55.3,34.9,30.08,NE,51,24.0,28.0,46,0.00,,,0.00,WUHU216DAVISVP2,2013-11-19 15:58:00,
2013-11-19 11:00:00,55.4,34.4,30.08,NE,45,17.0,28.0,45,0.00,,,0.00,WUHU216DAVISVP2,2013-11-19 16:00:00,
2013-11-19 11:03:00,55.4,36.0,30.08,NE,37,20.0,28.0,48,0.00,,,0.00,WUHU216DAVISVP2,2013-11-19 16:03:00,
2013-11-19 11:08:00,55.6,35.1,30.08,NE,49,6.0,28.0,46,0.00,,,0.00,WUHU216DAVISVP2,2013-11-19 16:08:00,
2013-11-19 11:13:00,55.8,36.4,30.08,North,7,10.0,27.0,48,0.00,,,0.00,WUHU216DAVISVP2,2013-11-19 16:13:00,
2013-11-19 11:18:00,55.7,34.6,30.08,NE,38,18.0,27.0,45,0.00,,,0.00,WUHU216DAVISVP2,2013-11-19 16:18:00,
2013-11-19 11:23:00,55.6,35.1,30.08,NE,37,17.0,24.0,46,0.00,,,0.00,WUHU216DAVISVP2,2013-11-19 16:23:00,
2013-11-19 11:28:00,55.8,34.1,30.08,NE,38,13.0,24.0,44,0.00,,,0.00,WUHU216DAVISVP2,2013-11-19 16:28:00,
2013-11-19 11:30:00,55.7,33.5,30.08,NE,45,15.0,27.0,43,0.00,,,0.00,WUHU216DAVISVP2,2013-11-19 16:30:00,
2013-11-19 11:33:00,56.1,34.4,30.08,NNE,18,19.0,24.0,44,0.00,,,0.00,WUHU216DAVISVP2,2013-11-19 16:33:00,
2013-11-19 11:38:00,55.9,35.9,30.08,NE,37,18.0,24.0,47,0.00,,,0.00,WUHU216DAVISVP2,2013-11-19 16:38:00,
2013-11-19 11:43:00,56.1,34.5,30.08,NNE,19,6.0,21.0,44,0.00,,,0.00,WUHU216DAVISVP2,2013-11-19 16:43:00,
2013-11-19 11:48:00,56.1,35.0,30.07,NE,44,13.0,21.0,45,0.00,,,0.00,WUHU216DAVISVP2,2013-11-19 16:48:00,
2013-11-19 11:53:00,56.3,37.4,30.08,NE,37,21.0,23.0,49,0.00,,,0.00,WUHU216DAVISVP2,2013-11-19 16:53:00,
2013-11-19 11:58:00,56.2,34.6,30.07,NE,47,14.0,24.0,44,0.00,,,0.00,WUHU216DAVISVP2,2013-11-19 16:58:00,
2013-11-19 12:00:00,56.4,34.7,30.07,NE,45,15.0,24.0,44,0.00,,,0.00,WUHU216DAVISVP2,2013-11-19 17:00:00,
2013-11-19 12:03:00,56.2,35.7,30.08,NNE,31,17.0,24.0,46,0.00,,,0.00,WUHU216DAVISVP2,2013-11-19 17:03:00,
2013-11-19 12:08:00,56.0,33.7,30.07,NE,49,16.0,24.0,43,0.00,,,0.00,WUHU216DAVISVP2,2013-11-19 17:08:00,
2013-11-19 12:13:00,56.2,36.7,30.07,NE,44,17.0,24.0,48,0.00,,,0.00,WUHU216DAVISVP2,2013-11-19 17:13:00,
2013-11-19 12:18:00,56.3,34.0,30.07,NNE,23,11.0,20.0,43,0.00,,,0.00,WUHU216DAVISVP2,2013-11-19 17:18:00,
2013-11-19 12:23:00,56.7,36.1,30.07,NNE,12,15.0,20.0,46,0.00,,,0.00,WUHU216DAVISVP2,2013-11-19 17:23:00,
2013-11-19 12:28:00,56.9,35.2,30.07,ENE,62,16.0,20.0,44,0.00,,,0.00,WUHU216DAVISVP2,2013-11-19 17:28:00,
2013-11-19 12:30:00,57.1,37.0,30.07,NE,45,15.0,20.0,47,0.00,,,0.00,WUHU216DAVISVP2,2013-11-19 17:30:00,
2013-11-19 12:33:00,57.1,36.4,30.07,NE,44,15.0,20.0,46,0.00,,,0.00,WUHU216DAVISVP2,2013-11-19 17:33:00,
2013-11-19 12:36:00,56.8,36.7,30.07,NE,36,11.0,20.0,47,0.00,,,0.00,WUHU216DAVISVP2,2013-11-19 17:36:00,
2013-11-19 12:41:00,56.9,34.5,30.07,NE,41,15.0,19.0,43,0.00,,,0.00,WUHU216DAVISVP2,2013-11-19 17:41:00,
2013-11-19 12:46:00,56.7,38.8,30.07,ENE,63,18.0,20.0,51,0.00,,,0.00,WUHU216DAVISVP2,2013-11-19 17:46:00,
2013-11-19 12:51:00,56.9,36.8,30.07,ENE,71,16.0,21.0,47,0.00,,,0.00,WUHU216DAVISVP2,2013-11-19 17:51:00,
2013-11-19 12:56:00,57.1,35.3,30.07,NE,34,15.0,21.0,44,0.00,,,0.00,WUHU216DAVISVP2,2013-11-19 17:56:00,
2013-11-19 13:00:00,57.0,37.5,30.07,NE,45,15.0,21.0,48,0.00,,,0.00,WUHU216DAVISVP2,2013-11-19 18:00:00,
2013-11-19 13:01:00,57.0,35.2,30.07,NE,45,16.0,21.0,44,0.00,,,0.00,WUHU216DAVISVP2,2013-11-19 18:01:00,
2013-11-19 13:06:00,57.0,38.0,30.07,NE,46,16.0,20.0,49,0.00,,,0.00,WUHU216DAVISVP2,2013-11-19 18:06:00,
2013-11-19 13:11:00,56.6,38.2,30.06,NE,51,17.0,21.0,50,0.00,,,0.00,WUHU216DAVISVP2,2013-11-19 18:11:00,
2013-11-19 13:16:00,56.6,37.1,30.06,NE,39,18.0,21.0,48,0.00,,,0.00,WUHU216DAVISVP2,2013-11-19 18:16:00,
2013-11-19 13:21:00,56.5,34.8,30.06,NE,36,10.0,22.0,44,0.00,,,0.00,WUHU216DAVISVP2,2013-11-19 18:21:00,
2013-11-19 13:26:00,56.8,38.3,30.06,ENE,64,18.0,22.0,50,0.00,,,0.00,WUHU216DAVISVP2,2013-11-19 18:26:00,
2013-11-19 13:30:00,56.8,37.3,30.06,NE,45,16.0,22.0,48,0.00,,,0.00,WUHU216DAVISVP2,2013-11-19 18:30:00,
2013-11-19 13:31:00,56.9,37.4,30.06,NE,51,20.0,22.0,48,0.00,,,0.00,WUHU216DAVISVP2,2013-11-19 18:31:00,
2013-11-19 13:36:00,57.0,37.5,30.06,NNE,31,20.0,22.0,48,0.00,,,0.00,WUHU216DAVISVP2,2013-11-19 18:36:00,
2013-11-19 13:41:00,57.0,37.5,30.06,NE,39,18.0,25.0,48,0.00,,,0.00,WUHU216DAVISVP2,2013-11-19 18:41:00,
2013-11-19 13:46:00,57.0,35.8,30.06,NE,46,18.0,25.0,45,0.00,,,0.00,WUHU216DAVISVP2,2013-11-19 18:46:00,
2013-11-19 13:51:00,57.3,37.2,30.06,NE,49,22.0,25.0,47,0.00,,,0.00,WUHU216DAVISVP2,2013-11-19 18:51:00,
2013-11-19 13:56:00,56.9,35.1,30.06,NE,39,17.0,23.0,44,0.00,,,0.00,WUHU216DAVISVP2,2013-11-19 18:56:00,
2013-11-19 14:00:00,56.9,35.8,30.05,NE,45,17.0,25.0,45,0.00,,,0.00,WUHU216DAVISVP2,2013-11-19 19:00:00,
2013-11-19 14:01:00,57.0,37.0,30.05,ENE,63,18.0,18.0,47,0.00,,,0.00,Wunderground v.1.15,2013-11-19 19:01:00,
2013-11-19 14:06:00,57.1,35.4,30.05,ENE,59,17.0,20.0,44,0.00,,,0.00,Wunderground v.1.15,2013-11-19 19:06:00,
2013-11-19 14:11:00,57.1,35.4,30.05,NE,41,17.0,21.0,44,0.00,,,0.00,Wunderground v.1.15,2013-11-19 19:11:00,
2013-11-19 14:16:00,56.9,36.3,30.05,NE,56,17.0,21.0,46,0.00,,,0.00,Wunderground v.1.15,2013-11-19 19:16:00,
2013-11-19 14:21:00,57.2,35.5,30.06,NE,51,17.0,17.0,44,0.00,,,0.00,Wunderground v.1.15,2013-11-19 19:21:00,
2013-11-19 14:26:00,57.2,34.3,30.06,NE,41,17.0,20.0,42,0.00,,,0.00,Wunderground v.1.15,2013-11-19 19:26:00,
2013-11-19 14:30:00,57.1,35.9,30.05,NE,45,17.0,24.0,45,0.00,,,0.00,WUHU216DAVISVP2,2013-11-19 19:30:00,
2013-11-19 14:32:00,57.0,35.3,30.05,NE,44,17.0,20.0,44,0.00,,,0.00,Wunderground v.1.15,2013-11-19 19:32:00,
2013-11-19 14:37:00,57.1,35.9,30.05,ENE,68,18.0,21.0,45,0.00,,,0.00,Wunderground v.1.15,2013-11-19 19:37:00,
2013-11-19 14:42:00,57.0,35.3,30.05,NE,49,18.0,19.0,44,0.00,,,0.00,Wunderground v.1.15,2013-11-19 19:42:00,
2013-11-19 14:47:00,57.1,37.6,30.05,NE,41,17.0,20.0,48,0.00,,,0.00,Wunderground v.1.15,2013-11-19 19:47:00,
2013-11-19 14:53:00,57.1,36.5,30.05,NE,56,17.0,18.0,46,0.00,,,0.00,Wunderground v.1.15,2013-11-19 19:53:00,
2013-11-19 14:58:00,57.2,34.9,30.06,NE,44,17.0,20.0,43,0.00,,,0.00,Wunderground v.1.15,2013-11-19 19:58:00,
2013-11-19 15:00:00,57.2,36.6,30.05,NE,45,17.0,23.0,46,0.00,,,0.00,WUHU216DAVISVP2,2013-11-19 20:00:00,
2013-11-19 15:04:00,57.3,35.6,30.05,NE,42,17.0,18.0,44,0.00,,,0.00,Wunderground v.1.15,2013-11-19 20:04:00,
2013-11-19 15:09:00,57.1,36.5,30.06,NE,49,17.0,21.0,46,0.00,,,0.00,Wunderground v.1.15,2013-11-19 20:09:00,
2013-11-19 15:14:00,57.2,37.7,30.05,NE,56,17.0,18.0,48,0.00,,,0.00,Wunderground v.1.15,2013-11-19 20:14:00,
2013-11-19 15:19:00,57.2,35.5,30.05,NE,49,17.0,22.0,44,0.00,,,0.00,Wunderground v.1.15,2013-11-19 20:19:00,
2013-11-19 15:25:00,57.1,35.9,30.06,ENE,57,17.0,18.0,45,0.00,,,0.00,Wunderground v.1.15,2013-11-19 20:25:00,
2013-11-19 15:30:00,57.3,36.1,30.06,NNE,30,16.0,16.0,45,0.00,,,0.00,Wunderground v.1.15,2013-11-19 20:30:00,
2013-11-19 15:35:00,57.4,37.3,30.07,NE,50,16.0,19.0,47,0.00,,,0.00,Wunderground v.1.15,2013-11-19 20:35:00,
2013-11-19 15:40:00,57.2,36.0,30.07,NE,51,15.0,15.0,45,0.00,,,0.00,Wunderground v.1.15,2013-11-19 20:40:00,
2013-11-19 15:45:00,57.1,37.6,30.07,ENE,62,17.0,21.0,48,0.00,,,0.00,Wunderground v.1.15,2013-11-19 20:45:00,
2013-11-19 15:51:00,57.1,35.4,30.07,NE,47,17.0,18.0,44,0.00,,,0.00,Wunderground v.1.15,2013-11-19 20:51:00,
2013-11-19 15:56:00,57.1,35.4,30.07,ENE,68,16.0,18.0,44,0.00,,,0.00,Wunderground v.1.15,2013-11-19 20:56:00,
2013-11-19 16:00:00,57.1,37.6,30.07,NE,45,16.0,23.0,48,0.00,,,0.00,WUHU216DAVISVP2,2013-11-19 21:00:00,
2013-11-19 16:02:00,57.2,38.7,30.08,NE,56,15.0,17.0,50,0.00,,,0.00,Wunderground v.1.15,2013-11-19 21:02:00,
2013-11-19 16:07:00,57.0,37.0,30.08,NE,50,16.0,23.0,47,0.00,,,0.00,Wunderground v.1.15,2013-11-19 21:07:00,
2013-11-19 16:12:00,56.9,37.4,30.07,NE,49,17.0,19.0,48,0.00,,,0.00,Wunderground v.1.15,2013-11-19 21:12:00,
2013-11-19 16:18:00,56.9,38.4,30.08,NE,43,17.0,19.0,50,0.00,,,0.00,Wunderground v.1.15,2013-11-19 21:18:00,
2013-11-19 16:23:00,56.8,36.8,30.08,NE,53,17.0,21.0,47,0.00,,,0.00,Wunderground v.1.15,2013-11-19 21:23:00,
2013-11-19 16:28:00,56.8,37.3,30.08,ESE,104,18.0,21.0,48,0.00,,,0.00,Wunderground v.1.15,2013-11-19 21:28:00,
2013-11-19 16:30:00,56.8,37.8,30.09,NE,45,17.0,25.0,49,0.00,,,0.00,WUHU216DAVISVP2,2013-11-19 21:30:00,
2013-11-19 16:34:00,56.8,37.8,30.09,NE,40,16.0,18.0,49,0.00,,,0.00,Wunderground v.1.15,2013-11-19 21:34:00,
2013-11-19 16:39:00,56.7,37.7,30.09,NNE,24,15.0,20.0,49,0.00,,,0.00,Wunderground v.1.15,2013-11-19 21:39:00,
2013-11-19 16:44:00,56.5,36.0,30.10,NE,46,15.0,19.0,46,0.00,,,0.00,Wunderground v.1.15,2013-11-19 21:44:00,
2013-11-19 16:50:00,56.6,37.1,30.10,NE,46,14.0,20.0,48,0.00,,,0.00,Wunderground v.1.15,2013-11-19 21:50:00,
2013-11-19 16:55:00,56.5,37.0,30.10,NE,49,16.0,20.0,48,0.00,,,0.00,Wunderground v.1.15,2013-11-19 21:55:00,
2013-11-19 17:00:00,56.5,39.6,30.10,NE,41,16.0,16.0,53,0.00,,,0.00,Wunderground v.1.15,2013-11-19 22:00:00,
2013-11-19 17:06:00,56.3,37.9,30.10,NE,53,16.0,19.0,50,0.00,,,0.00,Wunderground v.1.15,2013-11-19 22:06:00,
2013-11-19 17:11:00,56.2,36.8,30.10,NE,45,15.0,15.0,48,0.00,,,0.00,Wunderground v.1.15,2013-11-19 22:11:00,
2013-11-19 17:17:00,56.0,37.1,30.10,NE,44,14.0,16.0,49,0.00,,,0.00,Wunderground v.1.15,2013-11-19 22:17:00,
2013-11-19 17:22:00,56.1,37.7,30.10,ENE,60,13.0,17.0,50,0.00,,,0.00,Wunderground v.1.15,2013-11-19 22:22:00,
2013-11-19 17:27:00,56.0,37.6,30.11,NW,323,13.0,18.0,50,0.00,,,0.00,Wunderground v.1.15,2013-11-19 22:27:00,
2013-11-19 17:30:00,55.5,35.6,30.11,NE,45,12.0,21.0,47,0.00,,,0.00,WUHU216DAVISVP2,2013-11-19 22:30:00,
2013-11-19 17:32:00,55.0,35.1,30.11,NNW,341,6.0,10.0,47,0.00,,,0.00,Wunderground v.1.15,2013-11-19 22:32:00,
2013-11-19 17:37:00,54.2,34.9,30.11,NW,309,4.0,10.0,48,0.00,,,0.00,Wunderground v.1.15,2013-11-19 22:37:00,
2013-11-19 17:43:00,53.6,34.4,30.12,NW,314,4.0,4.0,48,0.00,,,0.00,Wunderground v.1.15,2013-11-19 22:43:00,
2013-11-19 17:48:00,53.2,34.5,30.12,NNE,13,4.0,7.0,49,0.00,,,0.00,Wunderground v.1.15,2013-11-19 22:48:00,
2013-11-19 17:53:00,53.6,34.9,30.12,North,357,5.0,9.0,49,0.00,,,0.00,Wunderground v.1.15,2013-11-19 22:53:00,
2013-11-19 17:58:00,53.3,34.6,30.13,North,2,5.0,9.0,49,0.00,,,0.00,Wunderground v.1.15,2013-11-19 22:58:00,
2013-11-19 18:00:00,53.2,34.5,30.13,NW,315,4.0,14.0,49,0.00,,,0.00,WUHU216DAVISVP2,2013-11-19 23:00:00,
2013-11-19 18:04:00,52.9,34.2,30.13,NNW,340,4.0,5.0,49,0.00,,,0.00,Wunderground v.1.15,2013-11-19 23:04:00,
2013-11-19 18:09:00,52.6,34.5,30.13,North,4,4.0,6.0,50,0.00,,,0.00,Wunderground v.1.15,2013-11-19 23:09:00,
2013-11-19 18:15:00,52.5,34.9,30.13,NW,326,4.0,5.0,51,0.00,,,0.00,Wunderground v.1.15,2013-11-19 23:15:00,
2013-11-19 18:20:00,52.4,34.8,30.14,NW,321,4.0,4.0,51,0.00,,,0.00,Wunderground v.1.15,2013-11-19 23:20:00,
2013-11-19 18:25:00,52.6,35.9,30.14,NW,324,4.0,7.0,53,0.00,,,0.00,Wunderground v.1.15,2013-11-19 23:25:00,
2013-11-19 18:30:00,52.4,35.3,30.14,NNE,30,5.0,7.0,52,0.00,,,0.00,Wunderground v.1.15,2013-11-19 23:30:00,
2013-11-19 18:35:00,52.2,35.1,30.14,NNW,341,5.0,7.0,52,0.00,,,0.00,Wunderground v.1.15,2013-11-19 23:35:00,
2013-11-19 18:41:00,52.0,34.9,30.14,North,353,4.0,7.0,52,0.00,,,0.00,Wunderground v.1.15,2013-11-19 23:41:00,
2013-11-19 18:46:00,51.9,34.8,30.14,NW,310,5.0,8.0,52,0.00,,,0.00,Wunderground v.1.15,2013-11-19 23:46:00,
2013-11-19 18:51:00,52.0,35.4,30.15,North,8,6.0,9.0,53,0.00,,,0.00,Wunderground v.1.15,2013-11-19 23:51:00,
2013-11-19 18:57:00,51.9,35.8,30.15,NW,315,6.0,9.0,54,0.00,,,0.00,Wunderground v.1.15,2013-11-19 23:57:00,
2013-11-19 19:00:00,51.9,35.8,30.15,NNW,338,5.0,12.0,54,0.00,,,0.00,WUHU216DAVISVP2,2013-11-20 00:00:00,
2013-11-19 19:02:00,51.9,35.8,30.15,NNW,340,7.0,12.0,54,0.00,,,0.00,Wunderground v.1.15,2013-11-20 00:02:00,
2013-11-19 19:08:00,52.0,35.9,30.15,NW,322,7.0,12.0,54,0.00,,,0.00,Wunderground v.1.15,2013-11-20 00:08:00,
2013-11-19 19:14:00,52.1,36.4,30.15,NNE,20,7.0,10.0,55,0.00,,,0.00,Wunderground v.1.15,2013-11-20 00:14:00,
2013-11-19 19:19:00,51.8,36.1,30.15,NNW,327,7.0,10.0,55,0.00,,,0.00,Wunderground v.1.15,2013-11-20 00:19:00,
2013-11-19 19:24:00,51.7,36.0,30.15,NW,322,7.0,11.0,55,0.00,,,0.00,Wunderground v.1.15,2013-11-20 00:24:00,
2013-11-19 19:30:00,52.0,37.2,30.15,NW,319,9.0,10.0,57,0.00,,,0.00,Wunderground v.1.15,2013-11-20 00:30:00,
2013-11-19 19:35:00,52.1,37.8,30.15,North,1,10.0,13.0,58,0.00,,,0.00,Wunderground v.1.15,2013-11-20 00:35:00,
2013-11-19 19:41:00,52.2,38.3,30.16,North,8,10.0,17.0,59,0.00,,,0.00,Wunderground v.1.15,2013-11-20 00:41:00,
2013-11-19 19:46:00,53.7,41.8,30.16,NE,35,14.0,27.0,64,0.00,,,0.00,Wunderground v.1.15,2013-11-20 00:46:00,
2013-11-19 19:51:00,54.0,40.4,30.16,NNE,23,18.0,19.0,60,0.00,,,0.00,Wunderground v.1.15,2013-11-20 00:51:00,
2013-11-19 19:57:00,54.3,41.1,30.16,NE,39,17.0,23.0,61,0.00,,,0.00,Wunderground v.1.15,2013-11-20 00:57:00,
2013-11-19 20:00:00,54.4,42.1,30.16,NE,45,15.0,29.0,63,0.00,,,0.00,WUHU216DAVISVP2,2013-11-20 01:00:00,
2013-11-19 20:03:00,54.3,39.4,30.16,NE,42,21.0,26.0,57,0.00,,,0.00,Wunderground v.1.15,2013-11-20 01:03:00,
2013-11-19 20:08:00,54.2,38.8,30.16,NE,41,22.0,28.0,56,0.00,,,0.00,Wunderground v.1.15,2013-11-20 01:08:00,
2013-11-19 20:13:00,54.2,37.9,30.16,NE,49,22.0,23.0,54,0.00,,,0.00,Wunderground v.1.15,2013-11-20 01:13:00,
2013-11-19 20:18:00,54.2,39.7,30.16,NE,44,21.0,23.0,58,0.00,,,0.00,Wunderground v.1.15,2013-11-20 01:18:00,
2013-11-19 20:23:00,54.1,36.9,30.16,NE,46,20.0,23.0,52,0.00,,,0.00,Wunderground v.1.15,2013-11-20 01:23:00,
2013-11-19 20:29:00,54.3,40.3,30.16,NE,54,20.0,23.0,59,0.00,,,0.00,Wunderground v.1.15,2013-11-20 01:29:00,
2013-11-19 20:30:00,54.2,39.3,30.16,NE,45,21.0,31.0,57,0.00,,,0.00,WUHU216DAVISVP2,2013-11-20 01:30:00,
2013-11-19 20:34:00,54.1,38.7,30.17,NE,42,21.0,24.0,56,0.00,,,0.00,Wunderground v.1.15,2013-11-20 01:34:00,
2013-11-19 20:39:00,54.3,40.7,30.17,NE,38,21.0,29.0,60,0.00,,,0.00,Wunderground v.1.15,2013-11-20 01:39:00,
2013-11-19 20:45:00,54.2,39.3,30.17,NE,52,20.0,23.0,57,0.00,,,0.00,Wunderground v.1.15,2013-11-20 01:45:00,
2013-11-19 20:50:00,54.2,37.9,30.17,NE,53,21.0,21.0,54,0.00,,,0.00,Wunderground v.1.15,2013-11-20 01:50:00,
2013-11-19 20:55:00,54.1,40.1,30.17,NE,41,21.0,24.0,59,0.00,,,0.00,Wunderground v.1.15,2013-11-20 01:55:00,
2013-11-19 21:00:00,54.2,40.6,30.17,NE,38,20.0,20.0,60,0.00,,,0.00,Wunderground v.1.15,2013-11-20 02:00:00,
2013-11-19 21:06:00,54.2,40.2,30.18,NE,46,18.0,22.0,59,0.00,,,0.00,Wunderground v.1.15,2013-11-20 02:06:00,
2013-11-19 21:12:00,54.2,41.5,30.17,NE,54,20.0,23.0,62,0.00,,,0.00,Wunderground v.1.15,2013-11-20 02:12:00,
2013-11-19 21:17:00,54.1,43.4,30.18,NE,43,21.0,29.0,67,0.00,,,0.00,Wunderground v.1.15,2013-11-20 02:17:00,
2013-11-19 21:22:00,53.9,42.8,30.18,NE,48,22.0,32.0,66,0.00,,,0.00,Wunderground v.1.15,2013-11-20 02:22:00,
2013-11-19 21:27:00,53.9,43.6,30.18,NE,53,25.0,32.0,68,0.00,,,0.00,Wunderground v.1.15,2013-11-20 02:27:00,
2013-11-19 21:30:00,53.9,43.2,30.18,NE,45,22.0,33.0,67,0.00,,,0.00,WUHU216DAVISVP2,2013-11-20 02:30:00,
2013-11-19 21:33:00,53.7,41.8,30.18,ENE,76,25.0,25.0,64,0.00,,,0.00,Wunderground v.1.15,2013-11-20 02:33:00,
2013-11-19 21:38:00,53.6,43.3,30.18,NE,56,24.0,30.0,68,0.00,,,0.00,Wunderground v.1.15,2013-11-20 02:38:00,
2013-11-19 21:43:00,53.5,42.4,30.19,NE,50,25.0,27.0,66,0.00,,,0.00,Wunderground v.1.15,2013-11-20 02:43:00,
2013-11-19 21:48:00,53.4,43.1,30.19,NE,51,25.0,31.0,68,0.00,,,0.00,Wunderground v.1.15,2013-11-20 02:48:00,
2013-11-19 21:54:00,53.4,42.7,30.19,NNE,30,25.0,27.0,67,0.00,,,0.00,Wunderground v.1.15,2013-11-20 02:54:00,
2013-11-19 21:59:00,53.2,42.9,30.20,NE,41,23.0,27.0,68,0.00,,,0.00,Wunderground v.1.15,2013-11-20 02:59:00,
2013-11-19 22:00:00,53.1,42.0,30.20,NE,45,24.0,34.0,66,0.00,,,0.00,WUHU216DAVISVP2,2013-11-20 03:00:00,
2013-11-19 22:05:00,53.1,42.8,30.20,NE,51,22.0,26.0,68,0.00,,,0.00,Wunderground v.1.15,2013-11-20 03:05:00,
2013-11-19 22:11:00,53.0,42.3,30.21,ENE,63,22.0,24.0,67,0.00,,,0.00,Wunderground v.1.15,2013-11-20 03:11:00,
2013-11-19 22:16:00,53.1,42.8,30.21,NE,41,23.0,24.0,68,0.00,,,0.00,Wunderground v.1.15,2013-11-20 03:16:00,
2013-11-19 22:21:00,53.1,42.4,30.21,NE,43,22.0,23.0,67,0.00,,,0.00,Wunderground v.1.15,2013-11-20 03:21:00,
2013-11-19 22:26:00,52.9,42.6,30.21,NE,53,22.0,25.0,68,0.00,,,0.00,Wunderground v.1.15,2013-11-20 03:26:00,
2013-11-19 22:30:00,52.9,42.2,30.21,NE,45,22.0,31.0,67,0.00,,,0.00,WUHU216DAVISVP2,2013-11-20 03:30:00,
2013-11-19 22:32:00,52.9,43.0,30.21,NE,55,23.0,23.0,69,0.00,,,0.00,Wunderground v.1.15,2013-11-20 03:32:00,
2013-11-19 22:37:00,52.8,42.1,30.21,NE,51,23.0,26.0,67,0.00,,,0.00,Wunderground v.1.15,2013-11-20 03:37:00,
2013-11-19 22:43:00,52.9,43.0,30.21,NE,54,23.0,28.0,69,0.00,,,0.00,Wunderground v.1.15,2013-11-20 03:43:00,
2013-11-19 22:48:00,52.8,42.1,30.21,NE,49,23.0,28.0,67,0.00,,,0.00,Wunderground v.1.15,2013-11-20 03:48:00,
2013-11-19 22:53:00,52.5,41.5,30.22,NE,49,22.0,25.0,66,0.00,,,0.00,Wunderground v.1.15,2013-11-20 03:53:00,
2013-11-19 22:59:00,52.8,43.7,30.21,NE,53,22.0,25.0,71,0.00,,,0.00,Wunderground v.1.15,2013-11-20 03:59:00,
2013-11-19 23:00:00,52.9,43.7,30.21,NE,45,23.0,30.0,71,0.00,,,0.00,WUHU216DAVISVP2,2013-11-20 04:00:00,
2013-11-19 23:04:00,52.6,42.3,30.21,ENE,63,23.0,27.0,68,0.00,,,0.00,Wunderground v.1.15,2013-11-20 04:04:00,
2013-11-19 23:09:00,52.5,42.2,30.21,ENE,60,25.0,32.0,68,0.00,,,0.00,Wunderground v.1.15,2013-11-20 04:09:00,
2013-11-19 23:15:00,52.4,42.1,30.21,NE,35,26.0,29.0,68,0.00,,,0.00,Wunderground v.1.15,2013-11-20 04:15:00,
2013-11-19 23:20:00,52.3,42.4,30.21,ENE,62,26.0,27.0,69,0.00,,,0.00,Wunderground v.1.15,2013-11-20 04:20:00,
2013-11-19 23:25:00,52.3,42.0,30.21,ENE,63,25.0,29.0,68,0.00,,,0.00,Wunderground v.1.15,2013-11-20 04:25:00,
2013-11-19 23:30:00,52.3,43.2,30.21,NE,45,25.0,32.0,71,0.00,,,0.00,WUHU216DAVISVP2,2013-11-20 04:30:00,
2013-11-19 23:31:00,52.3,42.8,30.21,ENE,60,25.0,25.0,70,0.00,,,0.00,Wunderground v.1.15,2013-11-20 04:31:00,
2013-11-19 23:36:00,52.3,42.4,30.21,NE,47,25.0,28.0,69,0.00,,,0.00,Wunderground v.1.15,2013-11-20 04:36:00,
2013-11-19 23:41:00,52.1,42.6,30.21,NE,50,26.0,26.0,70,0.00,,,0.00,Wunderground v.1.15,2013-11-20 04:41:00,
2013-11-19 23:46:00,52.1,41.9,30.22,NE,46,25.0,26.0,68,0.00,,,0.00,Wunderground v.1.15,2013-11-20 04:46:00,
2013-11-19 23:52:00,52.0,41.8,30.21,ENE,60,25.0,29.0,68,0.00,,,0.00,Wunderground v.1.15,2013-11-20 04:52:00,
2013-11-19 23:57:00,52.1,41.5,30.22,NE,44,26.0,30.0,67,0.00,,,0.00,Wunderground v.1.15,2013-11-20 04:57:00,